Location: Arbon
(43.0005°N, 0.7472°E)
Time: 08:50:02
(UTC+00:00)

A-11 Canister half - Pass Details

Date: 30 November 2020
Orbit: 1517 x 1683 km, 47.2° (Epoch: 22 January)

Event Time Altitude Azimuth Distance (km) Brightness Sun altitude
Rises 18:22:04 0° 295° (WNW) 4,931 12.5 -21.1°
Reaches altitude 10° 18:25:34 10° 288° (WNW) 3,947 12.0 -21.7°
Maximum altitude 18:34:23 36° 227° (SW) 2,458 10.5 -23.3°
Drops below altitude 10° 18:43:09 10° 166° (SSE) 3,902 11.0 -24.9°
Sets 18:46:37 0° 158° (SSE) 4,869 11.5 -25.5°
